EZY46DM LEBL-EGCC

Flight info

Callsign EZY46DM
Flight time 2h 0m
Altitude 38000
Route NATPI DCT EVNAM DCT TUPAR UN861 ANG DCT AKIKI UN867 AVANT UM184 HEMEL T420 ELVOS
Aircraft A320/M-SDE3FGHIRWY/LB1

Departure

Time 2026-05-04 18:30
Airport Josep Tarradellas Barcelona-El Prat Airport (LEBL)

Arrival

Time 2026-05-04 20:30
Airport Manchester Airport (EGCC)
Time Latitude Longitude Altitude Speed Heading
2026-05-04 17:39 41.30238 2.07927 25 ft 0 kts 25°
2026-05-04 18:05 41.30237 2.07927 21 ft 1 kts 25°
2026-05-04 18:06 41.30191 2.07898 20 ft 2 kts 25°
2026-05-04 18:06 41.30171 2.07887 20 ft 4 kts
2026-05-04 18:06 41.30149 2.07892 19 ft 2 kts 335°
2026-05-04 18:07 41.30126 2.07902 19 ft 4 kts
2026-05-04 18:07 41.30108 2.07889 18 ft 3 kts 65°
2026-05-04 18:07 41.30101 2.07867 18 ft 0 kts 65°
2026-05-04 18:13 41.30111 2.07896 18 ft 5 kts 66°
2026-05-04 18:13 41.30077 2.07966 18 ft 13 kts 155°
2026-05-04 18:13 41.29935 2.08051 18 ft 5 kts 159°
2026-05-04 18:14 41.29916 2.08060 18 ft 0 kts 161°
2026-05-04 18:22 41.29863 2.08085 18 ft 18 kts 161°
2026-05-04 18:23 41.29736 2.08155 20 ft 22 kts 155°
2026-05-04 18:23 41.29588 2.08244 15 ft 25 kts 156°
2026-05-04 18:23 41.29430 2.08340 20 ft 25 kts 155°
2026-05-04 18:23 41.29270 2.08437 21 ft 25 kts 155°
2026-05-04 18:24 41.29101 2.08539 16 ft 28 kts 155°
2026-05-04 18:24 41.28931 2.08641 17 ft 19 kts 155°
2026-05-04 18:24 41.28866 2.08739 17 ft 16 kts 77°
2026-05-04 18:24 41.28911 2.08873 17 ft 16 kts 65°
2026-05-04 18:25 41.28969 2.09041 17 ft 22 kts 65°
2026-05-04 18:25 41.29034 2.09232 18 ft 24 kts 65°
2026-05-04 18:25 41.29104 2.09437 19 ft 25 kts 65°
2026-05-04 18:25 41.29179 2.09656 18 ft 27 kts 65°
2026-05-04 18:26 41.29259 2.09888 17 ft 26 kts 65°
2026-05-04 18:26 41.29322 2.10095 16 ft 21 kts 109°
2026-05-04 18:26 41.29281 2.10233 15 ft 16 kts 112°
2026-05-04 18:26 41.29227 2.10305 14 ft 8 kts 187°
2026-05-04 18:27 41.29201 2.10267 17 ft 4 kts 244°
2026-05-04 18:27 41.29193 2.10243 16 ft 0 kts 244°
2026-05-04 18:29 41.29189 2.10233 18 ft 8 kts 244°
2026-05-04 18:29 41.29049 2.09830 19 ft 86 kts 245°
2026-05-04 18:29 41.28718 2.08862 22 ft 144 kts 245°
2026-05-04 18:29 41.28268 2.07521 397 ft 162 kts 245°
2026-05-04 18:30 41.26646 2.05622 1653 ft 177 kts 192°
2026-05-04 18:30 41.25356 2.05327 2000 ft 200 kts 189°
2026-05-04 18:30 41.23915 2.05042 2571 ft 214 kts 189°
2026-05-04 18:31 41.22439 2.04717 3463 ft 215 kts 191°
2026-05-04 18:31 41.20977 2.04357 4329 ft 217 kts 192°
2026-05-04 18:31 41.19496 2.03959 5202 ft 218 kts 193°
2026-05-04 18:31 41.18014 2.03426 5913 ft 227 kts 210°
2026-05-04 18:32 41.16940 2.01890 6596 ft 236 kts 248°
2026-05-04 18:32 41.16853 1.99716 7418 ft 245 kts 285°
2026-05-04 18:32 41.17689 1.97705 8329 ft 251 kts 300°
2026-05-04 18:32 41.18660 1.95773 9245 ft 253 kts 300°
2026-05-04 18:33 41.19636 1.93819 10116 ft 255 kts 299°
2026-05-04 18:33 41.20619 1.91833 10947 ft 259 kts 298°
2026-05-04 18:33 41.21595 1.89847 11758 ft 261 kts 297°
2026-05-04 18:33 41.22593 1.87808 12566 ft 264 kts 297°
2026-05-04 18:34 41.23787 1.85878 13184 ft 281 kts 308°
2026-05-04 18:34 41.25212 1.83950 13429 ft 305 kts 309°
2026-05-04 18:34 41.26248 1.82565 13587 ft 321 kts 310°
2026-05-04 18:34 41.27883 1.80397 13887 ft 340 kts 310°
2026-05-04 18:35 41.29558 1.78193 14481 ft 346 kts 310°
2026-05-04 18:35 41.31285 1.75926 15149 ft 351 kts 310°
2026-05-04 18:35 41.33029 1.73631 15816 ft 355 kts 310°
2026-05-04 18:35 41.34791 1.71304 16497 ft 358 kts 310°
2026-05-04 18:36 41.36568 1.68949 17167 ft 362 kts 310°
2026-05-04 18:36 41.38358 1.66570 17729 ft 366 kts 310°
2026-05-04 18:36 41.40163 1.64166 17890 ft 367 kts 310°
2026-05-04 18:36 41.41964 1.61764 17934 ft 367 kts 310°
2026-05-04 18:37 41.43772 1.59346 18202 ft 370 kts 310°
2026-05-04 18:37 41.45593 1.56907 18854 ft 372 kts 310°
2026-05-04 18:37 41.47429 1.54464 19461 ft 375 kts 312°
2026-05-04 18:37 41.49526 1.52316 20037 ft 386 kts 323°
2026-05-04 18:38 41.51973 1.50728 20580 ft 397 kts 335°
2026-05-04 18:38 41.54687 1.49817 21106 ft 407 kts 346°
2026-05-04 18:38 41.57456 1.49221 21620 ft 410 kts 346°
2026-05-04 18:38 41.60290 1.48612 22137 ft 414 kts 346°
2026-05-04 18:39 41.63140 1.47996 22627 ft 417 kts 346°
2026-05-04 18:39 41.66023 1.47367 23109 ft 420 kts 346°
2026-05-04 18:39 41.68915 1.46732 23575 ft 423 kts 345°
2026-05-04 18:39 41.71830 1.46087 24028 ft 426 kts 345°
2026-05-04 18:40 41.74767 1.45432 24469 ft 430 kts 345°
2026-05-04 18:40 41.77730 1.44771 24893 ft 433 kts 345°
2026-05-04 18:40 41.80712 1.44111 25314 ft 436 kts 345°
2026-05-04 18:40 41.83713 1.43450 25736 ft 439 kts 345°
2026-05-04 18:41 41.86744 1.42783 26165 ft 441 kts 345°
2026-05-04 18:41 41.89782 1.42114 26581 ft 444 kts 345°
2026-05-04 18:41 41.92844 1.41438 26987 ft 447 kts 345°
2026-05-04 18:41 41.95880 1.40766 27386 ft 449 kts 345°
2026-05-04 18:42 41.98970 1.40078 27772 ft 451 kts 345°
2026-05-04 18:42 42.02074 1.39387 28147 ft 454 kts 345°
2026-05-04 18:42 42.05205 1.38690 28475 ft 457 kts 346°
2026-05-04 18:42 42.08353 1.37991 28826 ft 460 kts 346°
2026-05-04 18:43 42.11518 1.37286 29180 ft 462 kts 346°
2026-05-04 18:43 42.14704 1.36572 29548 ft 465 kts 345°
2026-05-04 18:43 42.17901 1.35854 29891 ft 466 kts 346°
2026-05-04 18:43 42.21114 1.35135 30211 ft 469 kts 346°
2026-05-04 18:44 42.24341 1.34415 30508 ft 472 kts 346°
2026-05-04 18:44 42.26488 1.33934 30670 ft 473 kts 346°
2026-05-04 18:44 42.30849 1.32953 31028 ft 476 kts 345°
2026-05-04 18:44 42.34115 1.32221 31290 ft 477 kts 346°
2026-05-04 18:45 42.37403 1.31488 31586 ft 479 kts 346°
2026-05-04 18:45 42.40685 1.30756 31962 ft 478 kts 346°
2026-05-04 18:45 42.43966 1.30021 32342 ft 477 kts 345°
2026-05-04 18:45 42.47239 1.29282 32689 ft 477 kts 345°
2026-05-04 18:46 42.50472 1.28549 33033 ft 477 kts 345°
2026-05-04 18:46 42.53778 1.27796 33379 ft 476 kts 345°
2026-05-04 18:46 42.57004 1.27060 33725 ft 476 kts 345°
2026-05-04 18:46 42.60263 1.26318 34082 ft 475 kts 345°
2026-05-04 18:47 42.63531 1.25578 34443 ft 475 kts 345°
2026-05-04 18:47 42.66788 1.24842 34795 ft 474 kts 345°
2026-05-04 18:47 42.70040 1.24106 35155 ft 474 kts 345°
2026-05-04 18:47 42.73295 1.23384 35477 ft 474 kts 346°
2026-05-04 18:48 42.76566 1.22794 35731 ft 475 kts 348°
2026-05-04 18:48 42.79854 1.22332 36010 ft 475 kts 350°
2026-05-04 18:48 42.83153 1.21945 36246 ft 475 kts 350°
2026-05-04 18:48 42.86448 1.21579 36518 ft 475 kts 350°
2026-05-04 18:49 42.89743 1.21195 36773 ft 474 kts 350°
2026-05-04 18:49 42.93030 1.20780 37028 ft 474 kts 349°
2026-05-04 18:49 42.96306 1.20342 37269 ft 473 kts 349°
2026-05-04 18:49 42.99588 1.19882 37511 ft 472 kts 349°
2026-05-04 18:50 43.02852 1.19416 37751 ft 471 kts 349°
2026-05-04 18:50 43.06118 1.18948 37918 ft 471 kts 349°
2026-05-04 18:50 43.09331 1.18493 37971 ft 470 kts 349°
2026-05-04 18:51 43.15827 1.17589 37977 ft 467 kts 349°
2026-05-04 18:51 43.22289 1.16695 37968 ft 467 kts 349°
2026-05-04 18:52 43.28751 1.15800 37977 ft 466 kts 349°
2026-05-04 18:52 43.35204 1.14898 37981 ft 466 kts 349°
2026-05-04 18:53 43.41648 1.13997 37983 ft 465 kts 349°
2026-05-04 18:53 43.48058 1.13104 37988 ft 465 kts 349°
2026-05-04 18:54 43.54494 1.12208 37985 ft 465 kts 349°
2026-05-04 18:54 43.60860 1.10841 37981 ft 457 kts 338°
2026-05-04 18:55 43.66721 1.07615 37965 ft 451 kts 330°
2026-05-04 18:55 43.75324 1.02457 37977 ft 452 kts 331°
2026-05-04 18:56 43.81097 0.99002 37978 ft 452 kts 331°
2026-05-04 18:56 43.86868 0.95530 37981 ft 452 kts 331°
2026-05-04 18:57 43.92637 0.92049 37981 ft 452 kts 331°
2026-05-04 18:57 43.98414 0.88561 37979 ft 453 kts 331°
2026-05-04 18:58 44.04198 0.85070 37956 ft 453 kts 331°
2026-05-04 18:58 44.09980 0.81568 37963 ft 454 kts 331°
2026-05-04 18:59 44.15776 0.78053 37960 ft 454 kts 332°
2026-05-04 18:59 44.21532 0.74554 37973 ft 455 kts 331°
2026-05-04 19:00 44.27338 0.71012 37957 ft 455 kts 331°
2026-05-04 19:00 44.33136 0.67463 37974 ft 455 kts 331°
2026-05-04 19:01 44.38927 0.63902 37978 ft 455 kts 331°
2026-05-04 19:01 44.44729 0.60330 37977 ft 455 kts 331°
2026-05-04 19:02 44.50499 0.56782 37977 ft 455 kts 332°
2026-05-04 19:02 44.56311 0.53211 37967 ft 455 kts 331°
2026-05-04 19:03 44.62114 0.49626 37965 ft 456 kts 331°
2026-05-04 19:03 44.67918 0.46028 37958 ft 455 kts 331°
2026-05-04 19:04 44.73717 0.42423 37952 ft 456 kts 331°
2026-05-04 19:04 44.79479 0.38837 37967 ft 456 kts 331°
2026-05-04 19:05 44.85276 0.35217 37965 ft 456 kts 331°
2026-05-04 19:05 44.91095 0.31579 37958 ft 456 kts 332°
2026-05-04 19:06 44.96900 0.27944 37961 ft 456 kts 332°
2026-05-04 19:06 45.02700 0.24304 37952 ft 456 kts 331°
2026-05-04 19:07 45.08506 0.20648 37945 ft 457 kts 331°
2026-05-04 19:07 45.14312 0.16984 37953 ft 457 kts 332°
2026-05-04 19:08 45.20087 0.13335 37959 ft 457 kts 332°
2026-05-04 19:08 45.25911 0.09657 37950 ft 457 kts 331°
2026-05-04 19:09 45.31724 0.05969 37953 ft 457 kts 331°
2026-05-04 19:09 45.37542 0.02265 37961 ft 458 kts 331°
2026-05-04 19:10 45.43322 -0.01415 37952 ft 458 kts 332°
2026-05-04 19:10 45.49138 -0.05125 37980 ft 457 kts 333°
2026-05-04 19:11 45.54932 -0.08837 37982 ft 456 kts 333°
2026-05-04 19:11 45.60347 -0.12317 37979 ft 456 kts 333°
2026-05-04 19:12 45.69023 -0.17915 37980 ft 456 kts 333°
2026-05-04 19:13 45.74814 -0.21658 37982 ft 456 kts 333°
2026-05-04 19:13 45.80619 -0.25410 37978 ft 462 kts 333°
2026-05-04 19:14 45.86550 -0.29262 37965 ft 472 kts 333°
2026-05-04 19:14 45.92557 -0.33168 37979 ft 475 kts 333°
2026-05-04 19:15 45.98587 -0.37093 37972 ft 476 kts 333°
2026-05-04 19:15 46.04578 -0.41002 37978 ft 476 kts 333°
2026-05-04 19:16 46.10611 -0.44952 37978 ft 476 kts 333°
2026-05-04 19:16 46.16649 -0.48910 37977 ft 476 kts 333°
2026-05-04 19:17 46.22684 -0.52881 37965 ft 477 kts 333°
2026-05-04 19:17 46.28717 -0.56865 37979 ft 477 kts 333°
2026-05-04 19:18 46.34754 -0.60868 37979 ft 477 kts 333°
2026-05-04 19:18 46.40800 -0.64845 37980 ft 478 kts 336°
2026-05-04 19:19 46.47279 -0.67031 37982 ft 481 kts 352°
2026-05-04 19:19 46.53939 -0.68124 37983 ft 482 kts 352°
2026-05-04 19:20 46.60604 -0.69238 37983 ft 482 kts 352°
2026-05-04 19:20 46.67224 -0.70359 37983 ft 482 kts 352°
2026-05-04 19:21 46.73887 -0.71491 37985 ft 482 kts 352°
2026-05-04 19:21 46.80559 -0.72623 37987 ft 482 kts 352°
2026-05-04 19:22 46.87237 -0.73748 37990 ft 482 kts 352°
2026-05-04 19:22 46.93906 -0.74878 37990 ft 481 kts 352°
2026-05-04 19:23 47.00514 -0.76012 37988 ft 481 kts 352°
2026-05-04 19:23 47.07168 -0.77157 37990 ft 481 kts 352°
2026-05-04 19:24 47.13828 -0.78297 37988 ft 481 kts 352°
2026-05-04 19:24 47.20485 -0.79430 37987 ft 481 kts 352°
2026-05-04 19:25 47.26009 -0.80386 37984 ft 481 kts 352°
2026-05-04 19:25 47.32657 -0.81545 37983 ft 481 kts 352°
2026-05-04 19:26 47.39297 -0.82692 37981 ft 480 kts 352°
2026-05-04 19:26 47.45942 -0.83836 37979 ft 480 kts 352°
2026-05-04 19:27 47.52583 -0.84986 37978 ft 481 kts 352°
2026-05-04 19:27 47.59200 -0.86419 37972 ft 480 kts 349°
2026-05-04 19:28 47.65762 -0.88258 37970 ft 479 kts 347°
2026-05-04 19:28 47.72309 -0.90137 37978 ft 479 kts 348°
2026-05-04 19:29 47.78778 -0.91888 37956 ft 462 kts 349°
2026-05-04 19:29 47.85077 -0.93535 37956 ft 458 kts 349°
2026-05-04 19:30 47.91319 -0.95180 37947 ft 458 kts 348°
2026-05-04 19:30 47.97590 -0.96865 37946 ft 457 kts 348°
2026-05-04 19:31 48.03856 -0.98550 37948 ft 457 kts 349°
2026-05-04 19:31 48.10114 -1.00237 37961 ft 456 kts 349°
2026-05-04 19:32 48.16359 -1.01928 37970 ft 456 kts 349°
2026-05-04 19:32 48.22566 -1.03604 37962 ft 455 kts 349°
2026-05-04 19:33 48.28797 -1.05296 37962 ft 455 kts 349°
2026-05-04 19:33 48.35030 -1.06991 37976 ft 455 kts 349°
2026-05-04 19:34 48.41262 -1.08685 37970 ft 455 kts 349°
2026-05-04 19:34 48.47498 -1.10395 37978 ft 455 kts 349°
2026-05-04 19:35 48.53725 -1.12101 37983 ft 455 kts 349°
2026-05-04 19:35 48.59949 -1.13815 37984 ft 454 kts 349°
2026-05-04 19:36 48.66170 -1.15530 37985 ft 454 kts 349°
2026-05-04 19:36 48.72385 -1.17246 37989 ft 454 kts 348°
2026-05-04 19:37 48.78606 -1.18978 37993 ft 454 kts 349°
2026-05-04 19:37 48.84768 -1.20695 37994 ft 453 kts 348°
2026-05-04 19:38 48.90981 -1.22423 37999 ft 454 kts 349°
2026-05-04 19:38 48.97184 -1.24132 38001 ft 453 kts 349°
2026-05-04 19:39 49.03383 -1.25857 38003 ft 452 kts 349°
2026-05-04 19:39 49.09581 -1.27603 38004 ft 453 kts 349°
2026-05-04 19:40 49.15775 -1.29346 38010 ft 452 kts 349°
2026-05-04 19:40 49.21953 -1.31091 38012 ft 451 kts 348°
2026-05-04 19:41 49.28131 -1.32842 38014 ft 451 kts 349°
2026-05-04 19:41 49.34264 -1.34579 38015 ft 451 kts 349°
2026-05-04 19:42 49.40435 -1.36336 38015 ft 451 kts 349°
2026-05-04 19:42 49.46596 -1.38086 38014 ft 451 kts 349°
2026-05-04 19:43 49.52766 -1.39844 38015 ft 451 kts 349°
2026-05-04 19:43 49.58951 -1.41424 38014 ft 450 kts 356°
2026-05-04 19:44 49.65214 -1.41134 38015 ft 450 kts
2026-05-04 19:44 49.71470 -1.40586 38012 ft 450 kts
2026-05-04 19:45 49.77717 -1.40033 38010 ft 449 kts
2026-05-04 19:45 49.83924 -1.39481 38012 ft 449 kts
2026-05-04 19:46 49.90169 -1.38933 38014 ft 449 kts
2026-05-04 19:46 49.96409 -1.38374 38015 ft 450 kts
2026-05-04 19:47 50.02631 -1.37398 38019 ft 449 kts
2026-05-04 19:47 50.08808 -1.35850 38024 ft 449 kts
2026-05-04 19:48 50.14973 -1.34325 38027 ft 448 kts
2026-05-04 19:48 50.21130 -1.32799 38028 ft 448 kts
2026-05-04 19:49 50.27279 -1.31267 38028 ft 447 kts
2026-05-04 19:49 50.33427 -1.29727 38028 ft 447 kts
2026-05-04 19:50 50.39582 -1.28186 38027 ft 448 kts
2026-05-04 19:50 50.45729 -1.26631 38028 ft 447 kts
2026-05-04 19:51 50.51632 -1.23881 38031 ft 446 kts 27°
2026-05-04 19:51 50.56946 -1.18853 38034 ft 445 kts 33°
2026-05-04 19:52 50.62179 -1.13641 38038 ft 445 kts 33°
2026-05-04 19:52 50.67418 -1.08418 38038 ft 445 kts 33°
2026-05-04 19:53 50.72655 -1.03203 38038 ft 445 kts 33°
2026-05-04 19:53 50.77895 -0.97973 38041 ft 446 kts 33°
2026-05-04 19:54 50.83300 -0.93206 38042 ft 446 kts 21°
2026-05-04 19:54 50.89189 -0.90120 38039 ft 445 kts 18°
2026-05-04 19:55 50.95094 -0.87101 38034 ft 446 kts 18°
2026-05-04 19:55 51.00987 -0.84042 38040 ft 446 kts 18°
2026-05-04 19:56 51.06883 -0.80965 38042 ft 446 kts 18°
2026-05-04 19:56 51.12772 -0.77905 38043 ft 445 kts 18°
2026-05-04 19:57 51.18662 -0.74829 38043 ft 445 kts 18°
2026-05-04 19:57 51.24552 -0.71744 38044 ft 445 kts 18°
2026-05-04 19:58 51.30399 -0.68664 38043 ft 444 kts 18°
2026-05-04 19:58 51.36276 -0.65556 38041 ft 445 kts 18°
2026-05-04 19:59 51.42153 -0.62460 38040 ft 445 kts 18°
2026-05-04 19:59 51.48030 -0.59350 38039 ft 445 kts 18°
2026-05-04 20:00 51.53861 -0.56245 38037 ft 444 kts 18°
2026-05-04 20:00 51.59739 -0.53117 38038 ft 444 kts 18°
2026-05-04 20:01 51.65606 -0.49984 38040 ft 444 kts 18°
2026-05-04 20:01 51.71481 -0.46827 38040 ft 444 kts 18°
2026-05-04 20:02 51.77473 -0.44562 38045 ft 443 kts
2026-05-04 20:02 51.83531 -0.45727 37835 ft 443 kts 342°
2026-05-04 20:02 51.86412 -0.47632 37290 ft 440 kts 330°
2026-05-04 20:03 51.88997 -0.50119 36787 ft 437 kts 327°
2026-05-04 20:03 51.91585 -0.52668 36249 ft 434 kts 328°
2026-05-04 20:03 51.94169 -0.55195 35715 ft 432 kts 328°
2026-05-04 20:03 51.96739 -0.57698 35188 ft 430 kts 328°
2026-05-04 20:04 51.99298 -0.60188 34663 ft 428 kts 328°
2026-05-04 20:04 52.01842 -0.62671 34134 ft 426 kts 328°
2026-05-04 20:04 52.04374 -0.65149 33615 ft 423 kts 328°
2026-05-04 20:04 52.06886 -0.67612 33094 ft 420 kts 328°
2026-05-04 20:05 52.09382 -0.70068 32582 ft 417 kts 328°
2026-05-04 20:05 52.11860 -0.72514 32066 ft 415 kts 328°
2026-05-04 20:05 52.14314 -0.74937 31561 ft 412 kts 328°
2026-05-04 20:05 52.16756 -0.77347 31082 ft 409 kts 328°
2026-05-04 20:06 52.19181 -0.79740 30586 ft 405 kts 328°
2026-05-04 20:06 52.21580 -0.82110 30109 ft 402 kts 327°
2026-05-04 20:06 52.23959 -0.84465 29644 ft 398 kts 327°
2026-05-04 20:06 52.26310 -0.86799 29181 ft 394 kts 327°
2026-05-04 20:07 52.28610 -0.89086 28744 ft 390 kts 327°
2026-05-04 20:07 52.30915 -0.91379 28317 ft 386 kts 327°
2026-05-04 20:07 52.33197 -0.93649 27884 ft 382 kts 327°
2026-05-04 20:07 52.35452 -0.95894 27439 ft 378 kts 327°
2026-05-04 20:08 52.37684 -0.98119 27014 ft 374 kts 327°
2026-05-04 20:08 52.39901 -1.00331 26568 ft 371 kts 327°
2026-05-04 20:08 52.42103 -1.02531 26131 ft 369 kts 326°
2026-05-04 20:08 52.44279 -1.04713 25675 ft 366 kts 326°
2026-05-04 20:09 52.46446 -1.06889 25229 ft 364 kts 326°
2026-05-04 20:09 52.48599 -1.09048 24769 ft 362 kts 326°
2026-05-04 20:09 52.50749 -1.11210 24282 ft 360 kts 326°
2026-05-04 20:09 52.52879 -1.13354 23812 ft 359 kts 326°
2026-05-04 20:10 52.55002 -1.15491 23335 ft 357 kts 326°
2026-05-04 20:10 52.57118 -1.17623 22863 ft 356 kts 326°
2026-05-04 20:10 52.59203 -1.19728 22407 ft 355 kts 326°
2026-05-04 20:10 52.61308 -1.21855 21938 ft 354 kts 326°
2026-05-04 20:11 52.63406 -1.23976 21481 ft 353 kts 326°
2026-05-04 20:11 52.65491 -1.26090 21031 ft 352 kts 326°
2026-05-04 20:11 52.67572 -1.28202 20582 ft 350 kts 326°
2026-05-04 20:11 52.69641 -1.30303 20128 ft 349 kts 326°
2026-05-04 20:12 52.71712 -1.32404 19687 ft 347 kts 327°
2026-05-04 20:12 52.73075 -1.33786 19397 ft 346 kts 327°
2026-05-04 20:12 52.75806 -1.36564 18815 ft 344 kts 327°
2026-05-04 20:12 52.77155 -1.37939 18527 ft 343 kts 326°
2026-05-04 20:13 52.79179 -1.40008 18092 ft 342 kts 327°
2026-05-04 20:13 52.81197 -1.42071 17652 ft 340 kts 327°
2026-05-04 20:13 52.83211 -1.44130 17233 ft 339 kts 327°
2026-05-04 20:13 52.85851 -1.46839 16675 ft 337 kts 327°
2026-05-04 20:14 52.87197 -1.48219 16380 ft 336 kts 327°
2026-05-04 20:14 52.89181 -1.50257 15956 ft 335 kts 327°
2026-05-04 20:14 52.91153 -1.52283 15534 ft 333 kts 327°
2026-05-04 20:14 52.93119 -1.54306 15115 ft 332 kts 327°
2026-05-04 20:15 52.95072 -1.56320 14698 ft 330 kts 327°
2026-05-04 20:15 52.97020 -1.58331 14280 ft 329 kts 327°
2026-05-04 20:15 52.98957 -1.60330 13868 ft 327 kts 327°
2026-05-04 20:15 53.00858 -1.62297 13454 ft 325 kts 327°
2026-05-04 20:16 53.02798 -1.64305 13035 ft 324 kts 327°
2026-05-04 20:16 53.04692 -1.66301 12632 ft 320 kts 323°
2026-05-04 20:16 53.06319 -1.68769 12233 ft 316 kts 309°
2026-05-04 20:16 53.07722 -1.71508 11841 ft 314 kts 309°
2026-05-04 20:17 53.09135 -1.74259 11446 ft 311 kts 309°
2026-05-04 20:17 53.10536 -1.76970 11168 ft 305 kts 310°
2026-05-04 20:17 53.11893 -1.79598 11003 ft 295 kts 310°
2026-05-04 20:17 53.13222 -1.82174 10674 ft 292 kts 310°
2026-05-04 20:18 53.14542 -1.84735 10313 ft 290 kts 310°
2026-05-04 20:18 53.15849 -1.87273 9932 ft 288 kts 310°
2026-05-04 20:18 53.17151 -1.89804 9574 ft 286 kts 310°
2026-05-04 20:18 53.18439 -1.92318 9215 ft 283 kts 310°
2026-05-04 20:19 53.19715 -1.94814 8831 ft 282 kts 310°
2026-05-04 20:19 53.20973 -1.97273 8616 ft 273 kts 310°
2026-05-04 20:19 53.22177 -1.99611 8307 ft 259 kts 312°
2026-05-04 20:19 53.23542 -2.01470 7915 ft 249 kts 331°
2026-05-04 20:20 53.25145 -2.02457 7893 ft 255 kts 347°
2026-05-04 20:20 53.26933 -2.02584 7374 ft 253 kts
2026-05-04 20:20 53.28682 -2.02117 6934 ft 267 kts 16°
2026-05-04 20:20 53.30472 -2.01034 6468 ft 271 kts 20°
2026-05-04 20:21 53.32206 -1.99887 6037 ft 272 kts 20°
2026-05-04 20:21 53.33957 -1.98716 5613 ft 270 kts 20°
2026-05-04 20:21 53.37397 -1.96257 4858 ft 267 kts 22°
2026-05-04 20:22 53.39082 -1.95005 4556 ft 261 kts 23°
2026-05-04 20:22 53.40720 -1.93756 4251 ft 256 kts 23°
2026-05-04 20:22 53.42307 -1.92440 3953 ft 252 kts 27°
2026-05-04 20:22 53.43787 -1.90927 3662 ft 246 kts 32°
2026-05-04 20:23 53.45192 -1.89387 3516 ft 235 kts 32°
2026-05-04 20:23 53.46518 -1.87917 3483 ft 221 kts 34°
2026-05-04 20:23 53.47812 -1.86603 3487 ft 216 kts 18°
2026-05-04 20:23 53.49274 -1.86310 3490 ft 212 kts 349°
2026-05-04 20:24 53.50622 -1.87215 3486 ft 209 kts 321°
2026-05-04 20:24 53.51545 -1.89054 3490 ft 207 kts 294°
2026-05-04 20:24 53.51858 -1.91346 3498 ft 205 kts 268°
2026-05-04 20:24 53.51512 -1.93646 3488 ft 205 kts 240°
2026-05-04 20:25 53.50668 -1.95579 3484 ft 206 kts 232°
2026-05-04 20:25 53.49780 -1.97463 3488 ft 206 kts 232°
2026-05-04 20:25 53.48889 -1.99336 3498 ft 201 kts 232°
2026-05-04 20:25 53.48035 -2.01126 3492 ft 192 kts 232°
2026-05-04 20:26 53.47211 -2.02851 3511 ft 183 kts 232°
2026-05-04 20:26 53.46437 -2.04467 3397 ft 173 kts 232°
2026-05-04 20:26 53.45692 -2.06027 3201 ft 169 kts 232°
2026-05-04 20:26 53.44962 -2.07551 2994 ft 166 kts 232°
2026-05-04 20:27 53.44243 -2.09051 2779 ft 164 kts 232°
2026-05-04 20:27 53.43531 -2.10537 2563 ft 162 kts 232°
2026-05-04 20:27 53.42845 -2.11968 2362 ft 152 kts 232°
2026-05-04 20:27 53.42200 -2.13312 2172 ft 142 kts 233°
2026-05-04 20:28 53.41610 -2.14540 1982 ft 137 kts 233°
2026-05-04 20:28 53.41020 -2.15769 1802 ft 135 kts 233°
2026-05-04 20:28 53.40435 -2.16988 1624 ft 134 kts 234°
2026-05-04 20:28 53.39849 -2.18206 1442 ft 135 kts 234°
2026-05-04 20:29 53.39262 -2.19427 1271 ft 135 kts 234°
2026-05-04 20:29 53.38673 -2.20649 1088 ft 134 kts 234°
2026-05-04 20:29 53.38088 -2.21865 918 ft 134 kts 233°
2026-05-04 20:29 53.37504 -2.23078 732 ft 133 kts 233°
2026-05-04 20:30 53.36921 -2.24286 555 ft 133 kts 233°
2026-05-04 20:30 53.36342 -2.25486 375 ft 133 kts 233°
2026-05-04 20:30 53.35776 -2.26681 271 ft 125 kts 232°
2026-05-04 20:30 53.35380 -2.27496 243 ft 47 kts 230°
2026-05-04 20:31 53.35264 -2.27837 237 ft 25 kts 257°
2026-05-04 20:31 53.35238 -2.28071 231 ft 11 kts 261°
2026-05-04 20:31 53.35232 -2.28148 231 ft 0 kts 267°
2026-05-04 20:33 53.35246 -2.28210 232 ft 8 kts 312°
2026-05-04 20:33 53.35286 -2.28223 232 ft 5 kts 20°
2026-05-04 20:34 53.35322 -2.28195 233 ft 12 kts 22°
2026-05-04 20:34 53.35400 -2.28163 238 ft 10 kts
2026-05-04 20:34 53.35470 -2.28141 236 ft 14 kts 16°
2026-05-04 20:34 53.35557 -2.28038 236 ft 13 kts 49°
2026-05-04 20:35 53.35603 -2.27943 239 ft 8 kts 51°
2026-05-04 20:35 53.35651 -2.27888 242 ft 14 kts 12°
2026-05-04 20:35 53.35760 -2.27871 248 ft 15 kts
2026-05-04 20:35 53.35860 -2.27855 253 ft 14 kts
2026-05-04 20:36 53.35949 -2.27853 255 ft 13 kts 347°
2026-05-04 20:36 53.36030 -2.27954 255 ft 16 kts 319°
2026-05-04 20:36 53.36117 -2.28086 255 ft 18 kts 316°
2026-05-04 20:36 53.36199 -2.28224 255 ft 15 kts 314°
2026-05-04 20:37 53.36280 -2.28364 255 ft 18 kts 314°
2026-05-04 20:37 53.36333 -2.28451 255 ft 9 kts 318°
2026-05-04 20:37 53.36381 -2.28463 255 ft 7 kts 33°
2026-05-04 20:37 53.36415 -2.28411 255 ft 6 kts 43°
2026-05-04 20:38 53.36445 -2.28363 255 ft 6 kts 44°
2026-05-04 20:38 53.36471 -2.28321 255 ft 5 kts 45°
2026-05-04 20:38 53.36511 -2.28254 255 ft 14 kts 45°
2026-05-04 20:38 53.36558 -2.28137 255 ft 4 kts 116°
2026-05-04 20:39 53.36542 -2.28097 255 ft 4 kts 126°
2026-05-04 20:39 53.36541 -2.28059 255 ft 3 kts 75°
2026-05-04 20:39 53.36552 -2.28032 255 ft 3 kts 51°
2026-05-04 20:39 53.36579 -2.27986 255 ft 5 kts 45°
2026-05-04 20:40 53.36583 -2.27979 255 ft 0 kts 45°